sat.trackr.live / text

‹ back to catalog

STARLINK-36528

NORAD 67458 · 2026-008P

PAYLOAD ACTIVE UNKNOWN

§ Identity

Operator
Country
US
Launch date
2026-01-14
Launch site
AFETR
Launch vehicle
Mass (kg)
RCS (m²)

Purposes: comms

External: N2YO · Heavens-Above · Gunter

§ Orbital elements

Epoch: 2026-09-19T03:33:34.182720Z

Period
94.27 min
Inclination
43.0020°
Eccentricity
0.0001351
Mean motion
15.27588838 rev/d
Perigee alt
482.1 km
Apogee alt
483.9 km
Semi-major
6,861.2 km
B*
5.3419e-4
RAAN
192.2776°
Arg perigee
271.2111°
Mean anomaly
88.8586°
Rev number
3,916

§ Raw data

STARLINK-365281 67458U 26008P   26262.14831230  .00014470  00000+0  53419-3 0  99962 67458  43.0020 192.2776 0001351 271.2111  88.8586 15.27588838 39167

JSON: /api/v1/satellites/67458 · /tle

For live sub-satellite position, see the globe view (requires WebGL).

§ Visibility from observer

Set your observer location to see the next 7 days of passes ≥ 10°. The values pass through the URL so the page stays shareable.

No JS? Fill the form by hand. The geolocation button needs JavaScript.